TimeCDT,TemperatureF,Dew PointF,Humidity,Sea Level PressureIn,VisibilityMPH,Wind Direction,Wind SpeedMPH,Gust SpeedMPH,PrecipitationIn,Events,Conditions,WindDirDegrees,DateUTC
12:15 AM,64.4,55.4,73,30.09,10.0,SSE,4.6,-,N/A,,Clear,160,2014-05-08 05:15:00
12:35 AM,66.2,55.4,68,30.10,10.0,SSE,3.5,-,N/A,,Clear,150,2014-05-08 05:35:00
12:55 AM,64.4,55.4,73,30.10,10.0,Calm,Calm,-,N/A,,Clear,0,2014-05-08 05:55:00
1:15 AM,64.4,55.4,73,30.10,10.0,Calm,Calm,-,N/A,,Clear,0,2014-05-08 06:15:00
1:35 AM,59.0,53.6,82,30.10,10.0,Calm,Calm,-,N/A,,Clear,0,2014-05-08 06:35:00
1:55 AM,59.0,55.4,88,30.10,10.0,Calm,Calm,-,N/A,,Clear,0,2014-05-08 06:55:00
2:15 AM,57.2,53.6,88,30.10,10.0,Calm,Calm,-,N/A,,Clear,0,2014-05-08 07:15:00
2:35 AM,57.2,53.6,88,30.10,10.0,Calm,Calm,-,N/A,,Clear,0,2014-05-08 07:35:00
3:55 AM,55.4,53.6,94,30.11,10.0,Calm,Calm,-,N/A,,Clear,0,2014-05-08 08:55:00
4:15 AM,55.4,53.6,94,30.11,10.0,Calm,Calm,-,N/A,,Clear,0,2014-05-08 09:15:00
4:35 AM,55.4,51.8,88,30.12,10.0,Calm,Calm,-,N/A,,Clear,0,2014-05-08 09:35:00
4:55 AM,55.4,51.8,88,30.13,10.0,Calm,Calm,-,N/A,,Clear,0,2014-05-08 09:55:00
5:35 AM,55.4,51.8,88,30.14,10.0,Calm,Calm,-,N/A,,Clear,0,2014-05-08 10:35:00
5:55 AM,53.6,51.8,94,30.15,4.0,Calm,Calm,-,N/A,,Clear,0,2014-05-08 10:55:00
6:15 AM,53.6,51.8,94,30.16,10.0,Calm,Calm,-,N/A,,Clear,0,2014-05-08 11:15:00
6:35 AM,55.4,51.8,88,30.16,10.0,Calm,Calm,-,N/A,,Clear,0,2014-05-08 11:35:00
6:55 AM,57.2,55.4,94,30.17,10.0,Calm,Calm,-,N/A,,Clear,0,2014-05-08 11:55:00
7:15 AM,64.4,57.2,77,30.18,10.0,South,4.6,-,N/A,,Clear,180,2014-05-08 12:15:00
7:35 AM,66.2,57.2,73,30.18,10.0,South,4.6,-,N/A,,Clear,180,2014-05-08 12:35:00
7:55 AM,68.0,59.0,73,30.18,10.0,South,5.8,-,N/A,,Clear,190,2014-05-08 12:55:00
8:15 AM,69.8,59.0,68,30.18,9.0,SSW,6.9,-,N/A,,Clear,210,2014-05-08 13:15:00
8:35 AM,71.6,60.8,69,30.18,10.0,SSW,8.1,-,N/A,,Clear,200,2014-05-08 13:35:00
8:55 AM,71.6,60.8,69,30.19,10.0,SSW,10.4,-,N/A,,Clear,200,2014-05-08 13:55:00
9:15 AM,73.4,60.8,65,30.20,10.0,SSW,8.1,-,N/A,,Clear,200,2014-05-08 14:15:00
9:35 AM,73.4,60.8,65,30.20,10.0,SSW,9.2,-,N/A,,Clear,200,2014-05-08 14:35:00
9:55 AM,75.2,60.8,61,30.19,10.0,SSW,11.5,-,N/A,,Clear,210,2014-05-08 14:55:00
10:15 AM,75.2,60.8,61,30.19,10.0,SSW,5.8,-,N/A,,Clear,200,2014-05-08 15:15:00
10:35 AM,75.2,59.0,57,30.19,10.0,South,12.7,-,N/A,,Clear,190,2014-05-08 15:35:00
10:55 AM,77.0,59.0,54,30.19,10.0,South,13.8,-,N/A,,Clear,190,2014-05-08 15:55:00
11:15 AM,78.8,57.2,47,30.18,10.0,South,10.4,-,N/A,,Clear,190,2014-05-08 16:15:00
11:35 AM,78.8,55.4,44,30.18,10.0,South,10.4,-,N/A,,Clear,180,2014-05-08 16:35:00
11:55 AM,78.8,55.4,44,30.18,10.0,South,12.7,-,N/A,,Clear,190,2014-05-08 16:55:00
12:15 PM,80.6,53.6,39,30.17,10.0,South,13.8,-,N/A,,Clear,180,2014-05-08 17:15:00
12:35 PM,80.6,53.6,39,30.16,10.0,SW,13.8,-,N/A,,Clear,230,2014-05-08 17:35:00
12:55 PM,80.6,53.6,39,30.15,10.0,South,15.0,-,N/A,,Clear,170,2014-05-08 17:55:00
1:15 PM,80.6,53.6,39,30.15,10.0,South,10.4,-,N/A,,Clear,180,2014-05-08 18:15:00
1:35 PM,80.6,53.6,39,30.14,10.0,South,9.2,-,N/A,,Clear,180,2014-05-08 18:35:00
1:55 PM,80.6,51.8,37,30.14,10.0,SSW,12.7,-,N/A,,Clear,210,2014-05-08 18:55:00
2:15 PM,82.4,51.8,35,30.13,10.0,SSW,15.0,-,N/A,,Clear,210,2014-05-08 19:15:00
2:35 PM,82.4,53.6,37,30.12,10.0,SSW,12.7,-,N/A,,Clear,200,2014-05-08 19:35:00
2:55 PM,82.4,51.8,35,30.12,10.0,SW,13.8,-,N/A,,Clear,220,2014-05-08 19:55:00
3:15 PM,82.4,53.6,37,30.11,10.0,South,15.0,-,N/A,,Clear,190,2014-05-08 20:15:00
3:35 PM,82.4,53.6,37,30.11,10.0,South,11.5,-,N/A,,Clear,190,2014-05-08 20:35:00
3:55 PM,82.4,53.6,37,30.11,10.0,SSW,13.8,-,N/A,,Clear,200,2014-05-08 20:55:00
4:15 PM,82.4,53.6,37,30.11,10.0,South,11.5,-,N/A,,Clear,180,2014-05-08 21:15:00
4:35 PM,82.4,53.6,37,30.10,10.0,SSW,12.7,-,N/A,,Clear,200,2014-05-08 21:35:00
4:55 PM,82.4,51.8,35,30.10,10.0,SSW,10.4,-,N/A,,Clear,200,2014-05-08 21:55:00
5:15 PM,80.6,53.6,39,30.10,10.0,SSW,13.8,-,N/A,,Clear,200,2014-05-08 22:15:00
5:35 PM,80.6,53.6,39,30.11,10.0,SSW,9.2,-,N/A,,Clear,200,2014-05-08 22:35:00
5:55 PM,78.8,53.6,42,30.11,10.0,SSW,10.4,-,N/A,,Clear,210,2014-05-08 22:55:00
6:15 PM,78.8,55.4,44,30.10,10.0,South,5.8,-,N/A,,Clear,190,2014-05-08 23:15:00
6:35 PM,78.8,55.4,44,30.10,10.0,South,4.6,-,N/A,,Clear,170,2014-05-08 23:35:00
6:55 PM,77.0,55.4,47,30.10,10.0,South,5.8,-,N/A,,Clear,170,2014-05-08 23:55:00
7:15 PM,77.0,55.4,47,30.11,10.0,South,4.6,-,N/A,,Clear,170,2014-05-09 00:15:00
7:35 PM,75.2,55.4,50,30.11,10.0,SSE,4.6,-,N/A,,Clear,160,2014-05-09 00:35:00
7:55 PM,75.2,55.4,50,30.11,10.0,SSE,5.8,-,N/A,,Clear,160,2014-05-09 00:55:00
8:15 PM,75.2,57.2,53,30.11,10.0,South,4.6,-,N/A,,Clear,170,2014-05-09 01:15:00
8:35 PM,73.4,55.4,53,30.11,10.0,SSE,4.6,-,N/A,,Clear,160,2014-05-09 01:35:00
8:55 PM,73.4,57.2,57,30.11,10.0,SSE,4.6,-,N/A,,Clear,160,2014-05-09 01:55:00
9:15 PM,73.4,57.2,57,30.11,10.0,SSE,4.6,-,N/A,,Clear,160,2014-05-09 02:15:00
9:35 PM,73.4,55.4,53,30.12,10.0,SSE,3.5,-,N/A,,Clear,150,2014-05-09 02:35:00
9:55 PM,71.6,57.2,60,30.11,10.0,SSE,3.5,-,N/A,,Clear,160,2014-05-09 02:55:00
10:15 PM,71.6,57.2,60,30.11,10.0,SSE,3.5,-,N/A,,Clear,150,2014-05-09 03:15:00
10:35 PM,71.6,57.2,60,30.11,10.0,SE,4.6,-,N/A,,Clear,140,2014-05-09 03:35:00
10:55 PM,71.6,57.2,60,30.10,10.0,SSE,3.5,-,N/A,,Clear,160,2014-05-09 03:55:00
11:15 PM,69.8,57.2,64,30.10,10.0,SSE,3.5,-,N/A,,Clear,160,2014-05-09 04:15:00
11:35 PM,68.0,57.2,68,30.10,10.0,SSE,3.5,-,N/A,,Clear,160,2014-05-09 04:35:00
11:55 PM,69.8,57.2,64,30.09,10.0,SE,5.8,-,N/A,,Clear,140,2014-05-09 04:55:00